{"data":{"norad_id":40332,"intl_designator":"2014-078A","name":"GSAT-16","alt_names":[],"object_type":"PAYLOAD","status":"ACTIVE","operator":null,"country":"IND","launch_date":"2014-12-06","launch_site_code":"FRGUI","launch_vehicle":null,"mission":null,"orbit_class":"UNKNOWN","rcs_meters":63.2456,"size_class":null,"mass_kg":null,"dimensions":null,"purposes":["comms"],"wikipedia_slug":null,"has_3d_model":false,"image_url":null,"decayed_at":null,"tle_current":{"epoch":"2026-09-18T22:24:59.508576Z","epoch_age_seconds":157268,"freshness":"FRESH","line1":"1 40332U 14078A   26261.93402209  .00000080  00000+0  00000+0 0  9994","line2":"2 40332   0.0187 182.5138 0005884 289.9928 276.6906  1.00274185 43056","mean_motion":1.00274185,"eccentricity":0.0005884,"inclination_deg":0.0187,"raan_deg":182.5138,"arg_perigee_deg":289.9928,"mean_anomaly_deg":276.6906,"bstar":0,"rev_number":4305,"period_min":1436.0625319468,"perigee_km":35761.112835073,"apogee_km":35810.731499902,"semimajor_km":42164.059167488,"source":"CELESTRAK","updated_at":"2026-09-20T09:00:35.213420Z"}}}